• In Moldova, Republic
  • List of Countries
  • For 7 days
  • Water Temperature
  • Satellite Maps
  • Weather Map
  • Weather Widgets
  • user-avatar
    Login

    Hourly Weather Saurimo

    Today, 21 February, Tuesday

    Time Temperature Precipitation Wind Pressure Humidity
    00:00 +20°C° 0 mm 1 mps 670 mmHg 94%
    01:00 +20°C° 0 mm 1 mps 670 mmHg 94%
    02:00 +20°C° 0.2 mm 1 mps 670 mmHg 95%
    03:00 +20°C° 0.2 mm 1 mps 670 mmHg 95%
    04:00 +19°C° 0.2 mm 1 mps 670 mmHg 96%
    05:00 +20°C° 0.2 mm 1 mps 670 mmHg 95%
    06:00 +20°C° 0.2 mm 1 mps 670 mmHg 95%
    07:00 +21°C° 0.2 mm 1 mps 671 mmHg 94%
    08:00 +22°C° 0.2 mm 1 mps 671 mmHg 91%
    09:00 +23°C° 0.2 mm 2 mps 671 mmHg 88%
    10:00 +24°C° 0.2 mm 2 mps 672 mmHg 85%
    11:00 +25°C° 0.4 mm 2 mps 671 mmHg 83%
    12:00 +25°C° 0.4 mm 2 mps 671 mmHg 81%
    13:00 +26°C° 0.4 mm 2 mps 671 mmHg 80%
    14:00 +25°C° 0.5 mm 2 mps 670 mmHg 82%
    15:00 +25°C° 0.5 mm 2 mps 670 mmHg 84%
    16:00 +25°C° 0.5 mm 2 mps 669 mmHg 86%
    17:00 +24°C° 0.2 mm 1 mps 669 mmHg 89%
    18:00 +23°C° 0.2 mm 1 mps 669 mmHg 93%
    19:00 +22°C° 0.2 mm 1 mps 669 mmHg 97%
    20:00 +20°C° 0.1 mm 0 mps 670 mmHg 97%
    21:00 +19°C° 0.1 mm 0 mps 670 mmHg 97%
    22:00 +19°C° 0.1 mm 0 mps 670 mmHg 97%
    23:00 +19°C° 0.1 mm 0 mps 670 mmHg 97%

    Tomorrow, 22 February, Wednesday

    Time Temperature Precipitation Wind Pressure Humidity
    00:00 +21°C° 0.1 mm 1 mps 670 mmHg 97%
    01:00 +21°C° 0.1 mm 1 mps 669 mmHg 96%
    02:00 +20°C° 0 mm 1 mps 669 mmHg 96%
    03:00 +20°C° 0 mm 1 mps 669 mmHg 96%
    04:00 +20°C° 0 mm 1 mps 669 mmHg 96%
    05:00 +20°C° 0 mm 1 mps 669 mmHg 94%
    06:00 +21°C° 0 mm 1 mps 670 mmHg 93%
    07:00 +22°C° 0 mm 1 mps 670 mmHg 92%
    08:00 +23°C° 0.4 mm 1 mps 671 mmHg 85%
    09:00 +25°C° 0.4 mm 2 mps 671 mmHg 79%
    10:00 +27°C° 0.4 mm 2 mps 672 mmHg 72%
    11:00 +27°C° 0.4 mm 2 mps 671 mmHg 70%
    12:00 +28°C° 0.4 mm 3 mps 670 mmHg 67%
    13:00 +28°C° 0.4 mm 3 mps 670 mmHg 64%
    14:00 +28°C° 0.8 mm 3 mps 670 mmHg 69%
    15:00 +27°C° 0.8 mm 2 mps 669 mmHg 75%
    16:00 +26°C° 0.8 mm 2 mps 669 mmHg 80%
    17:00 +25°C° 0.4 mm 2 mps 669 mmHg 85%
    18:00 +24°C° 0.4 mm 2 mps 669 mmHg 90%
    19:00 +22°C° 0.4 mm 1 mps 670 mmHg 95%
    20:00 +22°C° 0.2 mm 1 mps 670 mmHg 96%
    21:00 +21°C° 0.2 mm 1 mps 670 mmHg 97%
    22:00 +21°C° 0.2 mm 1 mps 671 mmHg 98%
    23:00 +21°C° 0.1 mm 1 mps 670 mmHg 98%

    Day after tomorrow, 23 February, Thursday

    Time Temperature Precipitation Wind Pressure Humidity
    00:00 +21°C° 0.1 mm 1 mps 670 mmHg 98%
    01:00 +20°C° 0.1 mm 1 mps 669 mmHg 98%
    02:00 +20°C° 0 mm 1 mps 669 mmHg 98%
    03:00 +20°C° 0 mm 1 mps 669 mmHg 98%
    04:00 +20°C° 0 mm 1 mps 669 mmHg 98%
    05:00 +20°C° 0 mm 1 mps 669 mmHg 97%
    06:00 +21°C° 0 mm 1 mps 670 mmHg 95%
    07:00 +21°C° 0 mm 1 mps 670 mmHg 93%
    08:00 +23°C° 0.3 mm 2 mps 671 mmHg 85%
    09:00 +25°C° 0.3 mm 2 mps 671 mmHg 76%
    10:00 +27°C° 0.3 mm 2 mps 672 mmHg 67%
    11:00 +28°C° 0.6 mm 2 mps 671 mmHg 65%
    12:00 +28°C° 0.6 mm 3 mps 671 mmHg 62%
    13:00 +29°C° 0.6 mm 3 mps 670 mmHg 60%
    14:00 +28°C° 0.6 mm 2 mps 669 mmHg 65%
    15:00 +27°C° 0.6 mm 2 mps 669 mmHg 71%
    16:00 +27°C° 0.6 mm 2 mps 668 mmHg 77%
    17:00 +25°C° 0.2 mm 2 mps 669 mmHg 82%
    18:00 +24°C° 0.2 mm 1 mps 669 mmHg 86%
    19:00 +22°C° 0.2 mm 1 mps 669 mmHg 91%
    20:00 +22°C° 0 mm 1 mps 669 mmHg 91%
    21:00 +21°C° 0 mm 1 mps 670 mmHg 92%
    22:00 +21°C° 0 mm 1 mps 670 mmHg 92%
    23:00 +20°C° 0 mm 1 mps 669 mmHg 92%

    24 February, Friday

    Time Temperature Precipitation Wind Pressure Humidity
    00:00 +20°C° 0 mm 1 mps 669 mmHg 92%
    01:00 +20°C° 0 mm 1 mps 668 mmHg 92%
    02:00 +19°C° 0.1 mm 1 mps 668 mmHg 91%
    03:00 +19°C° 0.1 mm 1 mps 668 mmHg 91%
    04:00 +19°C° 0.1 mm 1 mps 668 mmHg 91%
    05:00 +20°C° 0.1 mm 1 mps 669 mmHg 90%
    06:00 +20°C° 0.1 mm 1 mps 670 mmHg 89%
    07:00 +21°C° 0.1 mm 1 mps 670 mmHg 88%
    08:00 +23°C° 0.1 mm 1 mps 671 mmHg 79%
    09:00 +25°C° 0.1 mm 2 mps 671 mmHg 71%
    10:00 +27°C° 0.1 mm 2 mps 672 mmHg 62%
    11:00 +28°C° 0.3 mm 2 mps 671 mmHg 61%
    12:00 +29°C° 0.3 mm 2 mps 670 mmHg 59%
    13:00 +29°C° 0.3 mm 3 mps 669 mmHg 58%
    14:00 +29°C° 0.2 mm 2 mps 669 mmHg 60%
    15:00 +29°C° 0.2 mm 2 mps 669 mmHg 63%
    16:00 +28°C° 0.2 mm 1 mps 668 mmHg 65%
    17:00 +27°C° 0.6 mm 1 mps 669 mmHg 72%
    18:00 +25°C° 0.6 mm 2 mps 669 mmHg 78%
    19:00 +23°C° 0.6 mm 2 mps 669 mmHg 85%
    20:00 +21°C° 0.3 mm 2 mps 669 mmHg 87%
    21:00 +22°C° 0.3 mm 1 mps 670 mmHg 90%
    22:00 +21°C° 0.3 mm 1 mps 670 mmHg 92%
    23:00 +21°C° 0.1 mm 1 mps 670 mmHg 93%

    25 February, Saturday

    Time Temperature Precipitation Wind Pressure Humidity
    00:00 +21°C° 0.1 mm 1 mps 669 mmHg 94%
    01:00 +20°C° 0.1 mm 1 mps 669 mmHg 96%
    02:00 +20°C° 0.2 mm 1 mps 669 mmHg 96%
    03:00 +20°C° 0.2 mm 1 mps 669 mmHg 96%
    04:00 +20°C° 0.2 mm 1 mps 669 mmHg 96%
    05:00 +21°C° 0 mm 1 mps 669 mmHg 95%
    06:00 +21°C° 0 mm 1 mps 670 mmHg 94%
    07:00 +22°C° 0 mm 1 mps 670 mmHg 92%
    08:00 +24°C° 0.2 mm 2 mps 671 mmHg 82%
    09:00 +26°C° 0.2 mm 2 mps 671 mmHg 72%
    10:00 +28°C° 0.2 mm 3 mps 671 mmHg 62%
    11:00 +29°C° 0.2 mm 2 mps 671 mmHg 58%
    12:00 +30°C° 0.2 mm 2 mps 670 mmHg 54%
    13:00 +31°C° 0.2 mm 2 mps 670 mmHg 50%
    14:00 +30°C° 1.2 mm 2 mps 669 mmHg 60%
    15:00 +29°C° 1.2 mm 2 mps 669 mmHg 69%
    16:00 +27°C° 1.2 mm 2 mps 668 mmHg 79%
    17:00 +26°C° 0.7 mm 2 mps 668 mmHg 84%
    18:00 +24°C° 0.7 mm 2 mps 669 mmHg 88%
    19:00 +23°C° 0.7 mm 1 mps 669 mmHg 93%
    20:00 +22°C° 1 mm 1 mps 669 mmHg 93%
    21:00 +22°C° 1 mm 1 mps 669 mmHg 93%
    22:00 +21°C° 1 mm 1 mps 670 mmHg 94%
    23:00 +21°C° 0 mm 1 mps 669 mmHg 94%

    26 February, Sunday

    Time Temperature Precipitation Wind Pressure Humidity
    00:00 +21°C° 0 mm 1 mps 669 mmHg 94%
    01:00 +21°C° 0 mm 1 mps 669 mmHg 95%
    02:00 +21°C° 0.6 mm 1 mps 669 mmHg 95%
    03:00 +21°C° 0.6 mm 1 mps 669 mmHg 96%
    04:00 +21°C° 0.6 mm 1 mps 669 mmHg 96%
    05:00 +21°C° 0.1 mm 1 mps 669 mmHg 95%
    06:00 +22°C° 0.1 mm 1 mps 670 mmHg 93%
    07:00 +22°C° 0.1 mm 1 mps 670 mmHg 92%
    08:00 +24°C° 0.1 mm 2 mps 671 mmHg 82%
    09:00 +26°C° 0.1 mm 2 mps 671 mmHg 73%
    10:00 +28°C° 0.1 mm 3 mps 671 mmHg 63%
    11:00 +29°C° 0.3 mm 3 mps 670 mmHg 61%
    12:00 +30°C° 0.3 mm 3 mps 669 mmHg 58%
    13:00 +30°C° 0.3 mm 3 mps 669 mmHg 56%
    14:00 +30°C° 1 mm 2 mps 668 mmHg 63%
    15:00 +29°C° 1 mm 2 mps 668 mmHg 70%
    16:00 +28°C° 1 mm 1 mps 667 mmHg 77%
    17:00 +26°C° 0.6 mm 1 mps 668 mmHg 81%
    18:00 +25°C° 0.6 mm 1 mps 668 mmHg 86%
    19:00 +23°C° 0.6 mm 1 mps 668 mmHg 90%
    20:00 +23°C° 0.1 mm 1 mps 668 mmHg 90%
    21:00 +22°C° 0.1 mm 1 mps 668 mmHg 91%
    22:00 +22°C° 0.1 mm 1 mps 668 mmHg 91%
    23:00 +22°C° 0.1 mm 1 mps 668 mmHg 91%
    Show more